カタログに戻る

STARLINK-33891

運用中通信VLEO
NORAD 63827·PAYLOAD·🇺🇸 United States

打ち上げ May 4, 2025 から Cape Canaveral Space Force Station

Loading…

次のパス (今後24時間)

TLE

最新Source: CelesTrak SupGP

元期: Sep 15, 2026, 02:27 UTC

1 63827C 25092Z   26258.10256944 -.00036113  00000+0 -13082-2 0  2587
2 63827  43.0001 183.2271 0001215 272.7430 257.5490 15.27592199    17

AllMySatでSTARLINK-33891をリアルタイム追跡

Download on the App Store